Probability
0 0 0 0 0 0 0 0 0 0 0 0 0 0 0 1 1 1 1 3 4 4 6 6 5 4 3 2 1 0 0 0 0 0 0 0 0 0 0 0 0 0 0
0 0 0 0 0 0 0 0 0 0 0 0 0 0 0 0 0 0 1 2 4 4 5 6 6 5 5 4 3 1 1 0 0 0 0 0 0 0 0 0 0 0 0
0 0 0 0 0 0 0 0 0 0 0 0 0 0 0 0 0 0 0 1 2 3 4 5 6 6 6 5 4 2 1 0 0 0 0 0 0 0 0 0 0 0 0
0 0 0 0 0 0 0 0 0 0 0 0 0 0 0 0 0 0 0 0 0 1 3 4 5 5 5 4 3 2 1 0 0 0 0 0 0 0 0 0 0 0 0
0 0 0 0 0 0 0 0 0 0 0 0 0 0 0 0 0 0 0 0 0 0 1 3 4 4 4 3 2 1 0 0 0 0 0 0 0 0 0 0 0 0 0
0 0 0 0 0 0 0 0 0 0 0 0 0 0 0 0 0 0 0 0 0 0 0 1 2 2 1 1 1 0 0 0 0 0 0 0 0 0 0 0 0 0 0
0 0 0 0 0 0 0 0 0 0 0 0 0 0 0 0 0 0 0 0 0 0 0 0 0 0 0 0 0 0 0 0 0 0 0 0 0 0 0 0 0 0 0
0 0 0 0 0 0 0 0 0 0 0 0 0 0 0 0 0 0 0 0 0 0 0 0 0 0 0 0 0 0 0 0 0 0 0 0 0 0 0 0 0 0 0
0 0 0 0 0 0 0 0 0 0 0 0 0 0 0 0 0 0 0 0 0 0 0 0 0 0 0 0 0 0 0 0 0 0 0 0 0 0 0 0 0 0 0
0 0 0 0 0 0 0 0 0 0 0 0 0 0 0 0 0 0 0 0 0 0 0 0 0 0 0 0 0 0 0 0 0 0 0 0 0 0 0 0 0 0 0
0 0 0 0 0 0 0 0 0 0 0 0 0 0 0 0 0 0 0 0 0 0 0 0 0 0 0 0 0 0 0 0 0 0 0 0 0 0 0 0 0 0 0
0 0 0 0 0 0 0 0 0 0 0 0 0 0 0 0 0 0 0 0 0 0 0 0 0 0 0 0 0 0 0 0 0 0 0 0 0 0 0 0 0 0 0
0 0 0 0 0 0 0 0 0 0 0 0 0 0 0 0 0 0 0 0 0 0 0 0 0 0 0 0 0 0 0 0 0 0 0 0 0 0 0 0 0 0 0
0 0 0 0 0 0 0 0 0 0 0 0 0 0 0 0 0 0 0 0 0 0 0 0 0 0 0 0 0 0 0 0 0 0 0 0 0 0 0 0 0 0 0
0 0 0 0 0 0 0 0 0 0 0 0 0 0 0 0 0 0 0 0 0 0 0 0 0 0 0 0 0 0 0 0 0 0 0 0 0 0 0 0 0 0 0
0 0 0 0 0 0 0 0 0 0 0 0 0 0 0 0 0 0 0 0 0 0 0 0 0 0 0 0 0 0 0 0 0 0 0 0 0 0 0 0 0 0 0
0 0 0 0 0 0 0 0 0 0 0 0 0 0 0 0 0 0 0 0 0 0 0 0 0 0 0 0 0 0 0 0 0 0 0 0 0 0 0 0 0 0 0
0 0 0 0 0 0 0 0 0 0 0 0 0 0 0 0 0 0 0 0 0 0 0 0 0 0 0 0 0 0 0 0 0 0 0 0 0 0 0 0 0 0 0
0 0 0 0 0 0 0 0 0 0 0 0 0 0 0 0 0 0 0 0 0 0 0 0 0 0 0 0 0 0 0 0 0 0 0 0 0 0 0 0 0 0 0
0 0 0 0 0 0 0 0 0 0 0 0 0 0 0 0 0 0 0 0 0 0 0 0 0 0 0 0 0 0 0 0 0 0 0 0 0 0 0 0 0 0 0
0 0 0 0 0 0 0 0 0 0 0 0 0 0 0 0 0 0 0 0 0 0 0 0 0 0 0 0 0 0 0 0 0 0 0 0 0 0 0 0 0 0 0
0 0 0 0 0 0 0 0 0 0 0 0 0 0 0 0 0 0 0 0 0 0 0 0 0 0 0 0 0 0 0 0 0 0 0 0 0 0 0 0 0 0 0
0 0 0 0 0 0 0 0 0 0 0 0 0 0 0 0 0 0 0 0 0 0 0 0 0 0 0 0 0 0 0 0 0 0 0 0 0 0 0 0 0 0 0
0 0 0 0 0 0 0 0 0 0 0 0 0 0 0 0 0 0 0 0 0 0 0 0 0 0 0 0 0 0 0 0 0 0 0 0 0 0 0 0 0 0 0
0 0 0 0 0 0 0 0 0 0 0 0 0 0 0 0 0 0 0 0 0 0 0 0 0 0 0 0 0 0 0 0 0 0 0 0 0 0 0 0 0 0 0
0 0 0 0 0 0 0 0 0 0 0 0 0 0 0 0 0 0 0 0 0 0 0 0 0 0 0 0 0 0 0 0 0 0 0 0 0 0 0 0 0 0 0
Wind_Speed
4 5 5 6 6 7 7 8 8 9 9 9 9 10 11 12 12 13 14 13 15 15 14 15 16 13 11 10 10 10 11 10 11 5 3 4 7 8 6 6 6 7 7
4 4 5 6 6 6 7 8 8 8 9 9 9 9 10 11 11 13 14 14 15 16 16 15 16 12 14 11 10 12 11 10 9 8 4 4 6 7 7 7 5 5 5
4 4 5 6 6 7 8 8 8 8 8 8 8 9 10 10 11 12 12 13 14 15 15 15 15 14 15 11 11 11 9 8 7 7 5 3 3 4 5 4 4 3 4
5 5 6 6 7 7 7 8 8 8 8 9 9 9 9 9 10 9 10 11 12 12 12 13 13 14 14 13 11 11 9 8 7 6 5 4 4 4 5 5 4 4 4
5 6 7 7 7 7 8 8 8 8 8 8 9 9 9 8 8 8 9 9 10 10 10 11 11 12 14 12 10 9 10 8 7 7 6 5 5 6 6 5 6 4 3
6 7 7 8 8 8 8 8 8 9 8 8 8 9 9 8 10 11 10 9 9 10 10 9 9 10 10 13 14 13 13 12 11 9 7 8 8 7 6 7 7 5 4
7 8 8 8 8 8 8 8 9 9 9 8 9 9 10 10 11 11 11 8 9 9 9 8 7 7 9 10 11 12 12 13 14 11 10 10 8 9 9 9 8 7 5
8 9 8 8 9 9 8 9 9 8 8 8 8 9 9 10 10 10 9 8 8 9 9 8 8 8 8 9 8 8 8 8 9 8 8 7 7 8 10 9 8 5 4
8 9 9 8 9 9 9 10 9 8 9 8 8 8 9 9 10 9 8 6 6 7 7 6 7 7 10 11 9 8 6 4 5 7 7 6 8 10 10 7 7 6 4
9 9 9 9 9 10 11 10 8 7 9 8 8 8 8 9 9 9 8 5 5 5 4 4 6 7 8 11 10 9 8 6 6 5 5 5 5 7 10 8 8 7 5
9 10 10 9 9 10 10 9 8 7 8 7 8 8 7 8 9 9 8 5 5 5 4 4 4 7 8 10 9 7 9 8 7 7 5 5 4 4 4 3 4 6 6
9 10 11 10 9 8 9 9 8 7 8 7 7 7 6 5 6 7 8 8 6 5 4 3 3 7 7 8 6 8 10 8 6 6 5 4 4 4 4 4 5 4 4
10 11 11 11 9 8 8 9 8 6 6 6 6 6 5 3 3 5 5 6 6 4 3 4 5 6 6 5 8 10 7 5 6 6 5 4 4 5 5 5 6 7 7
11 11 10 10 10 8 7 7 7 6 6 6 6 6 5 4 3 2 1 1 2 2 2 3 6 6 5 6 6 5 4 4 5 6 5 5 5 5 5 4 5 5 5
11 11 10 9 9 8 7 6 7 7 7 7 6 5 5 5 5 4 3 2 2 2 3 2 2 3 3 3 3 4 4 5 5 5 6 6 6 5 4 4 4 4 4
10 10 8 7 7 7 7 7 8 8 9 11 10 8 6 6 5 5 4 4 4 6 4 3 3 3 4 4 4 4 4 4 5 5 6 6 6 6 5 4 4 4 5
10 10 8 7 7 7 6 6 7 6 5 6 7 7 7 6 5 5 4 5 6 6 3 3 3 4 4 4 4 4 4 4 5 5 6 6 5 5 5 5 5 4 4
10 10 9 7 7 6 6 6 5 5 5 4 3 4 4 4 4 4 5 5 3 3 2 3 3 4 4 4 4 5 5 5 5 5 5 5 6 6 5 5 5 5 5
9 7 7 7 6 6 6 5 5 5 5 4 3 2 1 2 3 3 4 2 3 3 3 3 3 3 4 4 5 5 5 5 6 5 5 5 5 5 5 5 5 7 5
7 9 8 6 6 6 5 5 4 4 4 4 3 2 1 1 1 1 1 1 2 2 2 3 3 3 4 4 5 5 5 5 6 5 5 5 5 5 6 6 6 6 5
6 7 8 6 6 5 5 4 4 4 4 3 3 3 2 1 1 1 1 1 1 2 3 3 3 3 3 4 4 5 6 5 5 5 5 5 5 5 5 5 5 5 5
5 5 5 5 5 4 4 3 3 3 3 3 2 1 1 0 1 1 1 1 1 2 2 3 3 3 3 4 4 5 5 5 5 5 5 5 5 5 5 5 5 5 5
5 5 5 4 4 4 3 3 2 2 2 1 1 0 1 1 2 2 2 2 2 2 2 3 3 3 3 3 3 3 4 5 5 6 7 6 5 5 5 6 7 6 6
4 4 4 4 3 3 3 2 2 2 1 0 0 1 1 2 2 2 2 2 2 3 3 3 3 4 4 3 2 2 2 3 4 5 7 7 6 5 5 5 6 6 6
3 3 3 3 3 2 2 2 1 1 1 1 1 1 2 2 2 2 2 3 3 3 4 3 3 3 4 4 3 3 4 5 5 5 5 6 7 6 6 6 6 6 6
3 3 3 2 2 2 2 1 1 1 1 1 1 1 2 2 2 2 2 3 3 3 3 3 4 4 4 4 4 5 5 5 6 6 5 5 6 6 6 6 7 6 7
Wind_Direction
286 281 280 277 272 268 263 261 260 258 255 253 247 240 235 231 226 225 228 225 228 230 228 227 230 225 226 224 221 222 224 225 239 234 189 182 185 191 188 193 190 191 195
284 282 280 281 279 274 270 269 267 265 260 256 253 248 243 237 231 229 231 229 230 232 231 230 232 227 227 225 222 223 224 221 228 235 204 186 189 190 185 185 185 185 187
297 294 291 290 287 282 278 278 277 273 270 265 258 254 250 244 238 235 234 234 234 235 232 230 231 226 228 226 223 224 222 216 215 219 215 186 175 166 167 174 172 175 176
312 304 295 290 287 287 287 285 282 280 276 271 265 260 256 252 245 239 236 238 239 239 236 233 231 227 227 224 222 220 213 209 206 208 206 180 168 159 159 170 179 181 181
312 307 299 296 294 292 290 288 287 283 278 275 272 267 261 255 248 240 239 240 240 243 241 237 233 228 226 221 219 214 207 208 202 204 205 190 181 171 180 172 181 167 176
310 303 301 300 297 292 290 291 290 286 281 277 272 269 265 261 255 245 241 244 242 241 242 240 234 224 220 217 215 209 205 207 207 208 209 206 201 186 171 170 166 162 196
307 302 301 299 295 292 291 291 287 286 284 278 274 271 268 266 259 249 240 242 244 244 242 238 235 226 212 212 209 209 211 210 207 206 204 209 196 186 173 177 179 180 190
304 302 302 300 295 294 291 285 283 283 280 278 276 273 272 270 261 252 245 241 246 246 240 235 231 225 212 201 197 202 210 214 210 211 211 205 188 176 177 179 174 155 113
300 299 300 298 293 292 288 285 284 283 280 277 276 272 269 272 262 253 245 246 246 248 244 235 228 225 207 192 190 193 193 191 164 164 163 159 153 155 153 143 146 148 161
296 296 296 293 288 285 284 284 281 276 275 276 275 270 264 266 262 251 240 240 242 246 242 232 225 219 202 192 195 189 191 184 153 137 135 134 141 147 153 164 167 164 156
294 294 294 291 285 282 284 281 279 275 273 271 273 273 267 261 259 248 238 235 235 239 237 234 219 198 194 189 190 191 184 163 146 143 141 134 123 126 136 139 151 162 163
296 295 294 291 288 284 280 280 276 272 272 273 273 276 271 262 253 246 238 233 232 233 236 227 203 182 184 182 179 160 153 148 138 138 141 141 136 132 122 115 105 92 95
298 294 294 293 287 281 277 278 279 271 265 267 265 269 275 275 258 245 238 229 227 233 226 198 179 166 162 159 149 147 146 147 143 145 150 147 137 134 126 113 99 93 78
293 293 293 292 289 284 275 269 267 265 262 261 259 261 268 272 267 257 236 205 194 202 189 156 145 139 136 131 133 133 134 142 145 146 139 129 122 126 130 131 129 121 101
289 288 289 286 284 285 278 269 266 261 251 254 255 249 251 260 256 245 242 234 203 179 149 134 126 120 117 116 111 111 117 123 128 132 135 134 135 134 130 128 129 123 127
289 288 285 284 283 280 282 286 276 264 264 255 252 251 255 247 239 241 238 218 190 164 149 157 157 149 152 149 141 132 128 134 138 138 140 142 145 143 135 126 122 128 133
282 284 284 281 280 280 278 279 288 297 276 261 254 250 244 233 223 220 207 185 171 157 155 163 166 164 157 152 150 146 143 140 138 140 143 144 142 140 137 139 137 131 132
281 279 277 276 275 274 273 272 272 277 289 293 276 248 237 225 214 197 172 154 164 160 162 164 165 160 157 154 152 147 141 140 140 140 140 143 144 144 144 147 149 147 144
282 279 277 276 275 273 271 269 267 266 267 276 290 275 223 201 190 179 165 175 177 173 161 153 153 155 154 150 148 146 147 149 145 142 142 144 145 143 146 150 149 147 145
283 282 283 280 277 273 268 263 261 260 260 258 257 255 234 180 183 177 162 161 163 163 154 145 144 147 148 145 142 143 142 142 143 141 144 143 143 146 151 154 154 154 156
289 287 285 282 278 275 271 268 265 259 257 260 266 256 227 211 201 186 177 160 158 154 148 140 138 141 141 139 141 143 142 144 145 144 144 145 146 147 149 149 149 148 144
290 291 291 288 287 284 282 278 274 267 259 260 276 278 236 169 157 152 123 108 105 114 130 134 132 134 142 144 146 147 147 148 150 148 146 146 147 147 146 146 147 149 150
295 296 298 299 298 298 297 293 286 274 267 264 265 343 86 90 94 95 91 87 91 91 94 106 113 108 101 105 122 145 156 162 161 155 150 149 149 151 151 152 153 153 155
299 299 299 303 305 302 300 302 301 293 282 285 337 84 88 90 92 91 84 81 81 82 86 96 107 117 114 105 100 103 121 136 141 147 149 149 149 150 150 150 152 155 153
303 301 299 299 301 302 303 308 312 319 333 24 62 70 76 82 84 82 79 77 77 77 78 83 96 105 110 109 108 108 122 125 129 135 137 138 143 147 150 151 152 151 152
302 300 301 304 307 309 306 303 316 351 21 54 71 81 84 83 81 77 77 82 84 80 74 73 83 91 97 100 109 117 124 126 126 130 130 133 139 146 148 147 150 151 150